Simultaneous Nadir Overpasses (SNOs) Predictions

Prediction of SNOs between GOES-17 and METOP-C Satellite Orbit:

Table of predicted SNOs for the next 14.0 days since TLE Epoch: 6/17/2023
Index Date Time (GOES-17) GOES-17 Lat,Lon METOP-C Lat,Lon Distance(km) Time Diff (sec)
1 06/17/2023 04:38:03 0.00,-104.70 -0.42,-106.60 216.40 80
2 06/18/2023 04:14:43 0.00,-104.70 0.68,-101.60 352.38 80
3 06/19/2023 16:33:35 -0.00,-104.73 0.31,-106.17 163.61 80
4 06/20/2023 16:15:35 -0.00,-104.73 -0.79,-101.17 405.51 80
5 06/22/2023 04:34:36 -0.00,-104.70 -0.24,-105.78 122.26 80
6 06/23/2023 04:11:17 -0.00,-104.70 0.87,-100.78 446.83 80
7 06/24/2023 16:30:08 0.00,-104.74 0.12,-105.35 68.92 80
8 06/27/2023 04:31:09 -0.01,-104.72 -0.06,-104.95 26.43 80
9 06/29/2023 16:29:21 0.01,-104.75 -0.06,-104.52 26.56 80
